"Time","Value","Approval","myLocation"
"2023-05-06 00:00",5.32528747228381,"Approved","OW477"
"2023-05-06 01:00",5.24928337028825,"Approved","OW477"
"2023-05-06 02:00",5.33027926829268,"Approved","OW477"
"2023-05-06 03:00",5.39027516629712,"Approved","OW477"
"2023-05-06 04:00",5.35527106430155,"Approved","OW477"
"2023-05-06 05:00",5.33926696230599,"Approved","OW477"
"2023-05-06 06:00",5.33626286031042,"Approved","OW477"
"2023-05-06 07:00",5.33625875831486,"Approved","OW477"
"2023-05-06 08:00",5.33725465631929,"Approved","OW477"
"2023-05-06 09:00",5.26125055432373,"Approved","OW477"
"2023-05-06 10:00",5.23924645232816,"Approved","OW477"
"2023-05-06 11:00",5.22824235033259,"Approved","OW477"
"2023-05-06 12:00",5.22123824833703,"Approved","OW477"
"2023-05-06 13:00",5.28523414634146,"Approved","OW477"
"2023-05-06 14:00",5.3072300443459,"Approved","OW477"
"2023-05-06 15:00",5.43322594235033,"Approved","OW477"
"2023-05-06 16:00",5.45922184035477,"Approved","OW477"
"2023-05-06 17:00",5.3762177383592,"Approved","OW477"
"2023-05-06 18:00",5.36821363636364,"Approved","OW477"
"2023-05-06 19:00",5.36720953436807,"Approved","OW477"
"2023-05-06 20:00",5.3692054323725,"Approved","OW477"
"2023-05-06 21:00",5.37220133037694,"Approved","OW477"
"2023-05-06 22:00",5.37519722838138,"Approved","OW477"
"2023-05-06 23:00",5.32019312638581,"Approved","OW477"
"2023-05-07 00:00",5.28918902439024,"Approved","OW477"
"2023-05-07 01:00",5.37418492239468,"Approved","OW477"
"2023-05-07 02:00",5.38618082039911,"Approved","OW477"
"2023-05-07 03:00",5.46117671840355,"Approved","OW477"
"2023-05-07 04:00",5.39417261640798,"Approved","OW477"
"2023-05-07 05:00",5.39816851441242,"Approved","OW477"
"2023-05-07 06:00",5.40116441241685,"Approved","OW477"
"2023-05-07 07:00",5.40716031042129,"Approved","OW477"
"2023-05-07 08:00",5.41115620842572,"Approved","OW477"
"2023-05-07 09:00",5.41615210643016,"Approved","OW477"
"2023-05-07 10:00",5.34414800443459,"Approved","OW477"
"2023-05-07 11:00",5.32514390243902,"Approved","OW477"
"2023-05-07 12:00",5.31613980044346,"Approved","OW477"
"2023-05-07 13:00",5.30913569844789,"Approved","OW477"
"2023-05-07 14:00",5.42213159645233,"Approved","OW477"
"2023-05-07 15:00",5.51112749445676,"Approved","OW477"
"2023-05-07 16:00",5.4351233924612,"Approved","OW477"
"2023-05-07 17:00",5.43811929046563,"Approved","OW477"
"2023-05-07 18:00",5.44311518847007,"Approved","OW477"
"2023-05-07 19:00",5.4481110864745,"Approved","OW477"
"2023-05-07 20:00",5.45310698447894,"Approved","OW477"
"2023-05-07 21:00",5.45910288248337,"Approved","OW477"
"2023-05-07 22:00",5.4640987804878,"Approved","OW477"
"2023-05-07 23:00",5.56009467849224,"Approved","OW477"
"2023-05-08 00:00",5.58709057649667,"Approved","OW477"
"2023-05-08 01:00",5.60608647450111,"Approved","OW477"
"2023-05-08 02:00",5.52508237250554,"Approved","OW477"
"2023-05-08 03:00",5.44207827050998,"Approved","OW477"
"2023-05-08 04:00",5.42007416851441,"Approved","OW477"
"2023-05-08 05:00",5.40807006651885,"Approved","OW477"
"2023-05-08 06:00",5.45306596452328,"Approved","OW477"
"2023-05-08 07:00",5.48506186252772,"Approved","OW477"
"2023-05-08 08:00",5.49705776053215,"Approved","OW477"
"2023-05-08 09:00",5.50505365853659,"Approved","OW477"
"2023-05-08 10:00",5.51104955654102,"Approved","OW477"
"2023-05-08 11:00",5.62604545454546,"Approved","OW477"
"2023-05-08 12:00",5.60704135254989,"Approved","OW477"
"2023-05-08 13:00",5.48403725055432,"Approved","OW477"
"2023-05-08 14:00",5.45803314855876,"Approved","OW477"
"2023-05-08 15:00",5.44402904656319,"Approved","OW477"
"2023-05-08 16:00",5.49502494456763,"Approved","OW477"
"2023-05-08 17:00",5.52402084257206,"Approved","OW477"
"2023-05-08 18:00",5.5360167405765,"Approved","OW477"
"2023-05-08 19:00",5.54301263858093,"Approved","OW477"
"2023-05-08 20:00",5.55000853658537,"Approved","OW477"
"2023-05-08 21:00",5.6620044345898,"Approved","OW477"
"2023-05-08 22:00",5.68300033259423,"Approved","OW477"
"2023-05-08 23:00",5.60999623059867,"Approved","OW477"
"2023-05-09 00:00",5.6039921286031,"Approved","OW477"
"2023-05-09 01:00",5.60698802660754,"Approved","OW477"
"2023-05-09 02:00",5.60898392461197,"Approved","OW477"
"2023-05-09 03:00",5.61297982261641,"Approved","OW477"
"2023-05-09 04:00",5.61697572062084,"Approved","OW477"
"2023-05-09 05:00",5.62097161862528,"Approved","OW477"
"2023-05-09 06:00",5.60696751662971,"Approved","OW477"
"2023-05-09 07:00",5.65796341463415,"Approved","OW477"
"2023-05-09 08:00",5.65995931263858,"Approved","OW477"
"2023-05-09 09:00",5.55495521064302,"Approved","OW477"
"2023-05-09 10:00",5.53995110864745,"Approved","OW477"
"2023-05-09 11:00",5.58294700665189,"Approved","OW477"
"2023-05-09 12:00",5.61394290465632,"Approved","OW477"
"2023-05-09 13:00",5.62593880266075,"Approved","OW477"
"2023-05-09 14:00",5.63493470066519,"Approved","OW477"
"2023-05-09 15:00",5.64193059866962,"Approved","OW477"
"2023-05-09 16:00",5.64692649667406,"Approved","OW477"
"2023-05-09 17:00",5.65392239467849,"Approved","OW477"
"2023-05-09 18:00",5.76191829268293,"Approved","OW477"
"2023-05-09 19:00",5.78191419068736,"Approved","OW477"
"2023-05-09 20:00",5.7149100886918,"Approved","OW477"
"2023-05-09 21:00",5.70490598669623,"Approved","OW477"
"2023-05-09 22:00",5.65390188470067,"Approved","OW477"
"2023-05-09 23:00",5.6218977827051,"Approved","OW477"
"2023-05-10 00:00",5.60289368070953,"Approved","OW477"
"2023-05-10 01:00",5.59188957871397,"Approved","OW477"
"2023-05-10 02:00",5.6498854767184,"Approved","OW477"
"2023-05-10 03:00",5.67288137472284,"Approved","OW477"
"2023-05-10 04:00",5.68387727272727,"Approved","OW477"
"2023-05-10 05:00",5.69187317073171,"Approved","OW477"
"2023-05-10 06:00",5.78786906873614,"Approved","OW477"
"2023-05-10 07:00",5.81286496674058,"Approved","OW477"
"2023-05-10 08:00",5.83186086474501,"Approved","OW477"
"2023-05-10 09:00",5.70585676274945,"Approved","OW477"
"2023-05-10 10:00",5.65585266075388,"Approved","OW477"
"2023-05-10 11:00",5.63784855875832,"Approved","OW477"
"2023-05-10 12:00",5.62584445676275,"Approved","OW477"
"2023-05-10 13:00",5.61684035476718,"Approved","OW477"
"2023-05-10 14:00",5.65283625277162,"Approved","OW477"
"2023-05-10 15:00",5.69183215077605,"Approved","OW477"
"2023-05-10 16:00",5.70482804878049,"Approved","OW477"
"2023-05-10 17:00",5.71182394678492,"Approved","OW477"
"2023-05-10 18:00",5.83381984478936,"Approved","OW477"
"2023-05-10 19:00",5.85681574279379,"Approved","OW477"
"2023-05-10 20:00",5.77281164079823,"Approved","OW477"
"2023-05-10 21:00",5.76880753880266,"Approved","OW477"
"2023-05-10 22:00",5.7688034368071,"Approved","OW477"
"2023-05-10 23:00",5.76979933481153,"Approved","OW477"
"2023-05-11 00:00",5.77179523281596,"Approved","OW477"
"2023-05-11 01:00",5.7037911308204,"Approved","OW477"
"2023-05-11 02:00",5.67878702882483,"Approved","OW477"
"2023-05-11 03:00",5.72278292682927,"Approved","OW477"
"2023-05-11 04:00",5.8497788248337,"Approved","OW477"
"2023-05-11 05:00",5.87777472283814,"Approved","OW477"
"2023-05-11 06:00",5.89577062084257,"Approved","OW477"
"2023-05-11 07:00",5.81176651884701,"Approved","OW477"
"2023-05-11 08:00",5.72776241685144,"Approved","OW477"
"2023-05-11 09:00",5.70475831485588,"Approved","OW477"
"2023-05-11 10:00",5.72375421286031,"Approved","OW477"
"2023-05-11 11:00",5.76575011086474,"Approved","OW477"
"2023-05-11 12:00",5.77674600886918,"Approved","OW477"
"2023-05-11 13:00",5.78374190687361,"Approved","OW477"
"2023-05-11 14:00",5.77173780487805,"Approved","OW477"
"2023-05-11 15:00",5.70873370288248,"Approved","OW477"
"2023-05-11 16:00",5.79772960088692,"Approved","OW477"
"2023-05-11 17:00",5.82672549889135,"Approved","OW477"
"2023-05-11 18:00",5.81172139689579,"Approved","OW477"
"2023-05-11 19:00",5.80671729490022,"Approved","OW477"
"2023-05-11 20:00",5.80971319290466,"Approved","OW477"
"2023-05-11 21:00",5.81270909090909,"Approved","OW477"
"2023-05-11 22:00",5.81570498891353,"Approved","OW477"
"2023-05-11 23:00",5.75170088691796,"Approved","OW477"
"2023-05-12 00:00",5.72469678492239,"Approved","OW477"
"2023-05-12 01:00",5.70969268292683,"Approved","OW477"
"2023-05-12 02:00",5.77368858093126,"Approved","OW477"
"2023-05-12 03:00",5.8626844789357,"Approved","OW477"
"2023-05-12 04:00",5.89968037694013,"Approved","OW477"
"2023-05-12 05:00",5.82967627494457,"Approved","OW477"
"2023-05-12 06:00",5.824672172949,"Approved","OW477"
"2023-05-12 07:00",5.82566807095344,"Approved","OW477"
"2023-05-12 08:00",5.75166396895787,"Approved","OW477"
"2023-05-12 09:00",5.72665986696231,"Approved","OW477"
"2023-05-12 10:00",5.71265576496674,"Approved","OW477"
"2023-05-12 11:00",5.70165166297117,"Approved","OW477"
"2023-05-12 12:00",5.69164756097561,"Approved","OW477"
"2023-05-12 13:00",5.75464345898004,"Approved","OW477"
"2023-05-12 14:00",5.88063935698448,"Approved","OW477"
"2023-05-12 15:00",5.91163525498891,"Approved","OW477"
"2023-05-12 16:00",5.84863115299335,"Approved","OW477"
"2023-05-12 17:00",5.83362705099778,"Approved","OW477"
"2023-05-12 18:00",5.78462294900222,"Approved","OW477"
"2023-05-12 19:00",5.74561884700665,"Approved","OW477"
"2023-05-12 20:00",5.72761474501109,"Approved","OW477"
"2023-05-12 21:00",5.76861064301552,"Approved","OW477"
"2023-05-12 22:00",5.79760654101996,"Approved","OW477"
"2023-05-12 23:00",5.88260243902439,"Approved","OW477"
"2023-05-13 00:00",5.92059833702883,"Approved","OW477"
"2023-05-13 01:00",5.94159423503326,"Approved","OW477"
"2023-05-13 02:00",5.86759013303769,"Approved","OW477"
"2023-05-13 03:00",5.86158603104213,"Approved","OW477"
"2023-05-13 04:00",5.85858192904656,"Approved","OW477"
"2023-05-13 05:00",5.858577827051,"Approved","OW477"
"2023-05-13 06:00",5.85657372505543,"Approved","OW477"
"2023-05-13 07:00",5.85556962305987,"Approved","OW477"
"2023-05-13 08:00",5.7815655210643,"Approved","OW477"
"2023-05-13 09:00",5.75556141906874,"Approved","OW477"
"2023-05-13 10:00",5.73955731707317,"Approved","OW477"
"2023-05-13 11:00",5.83955321507761,"Approved","OW477"
"2023-05-13 12:00",5.92554911308204,"Approved","OW477"
"2023-05-13 13:00",5.85354501108647,"Approved","OW477"
"2023-05-13 14:00",5.85054090909091,"Approved","OW477"
"2023-05-13 15:00",5.85153680709534,"Approved","OW477"
"2023-05-13 16:00",5.85153270509978,"Approved","OW477"
"2023-05-13 17:00",5.85352860310421,"Approved","OW477"
"2023-05-13 18:00",5.85352450110865,"Approved","OW477"
"2023-05-13 19:00",5.85552039911308,"Approved","OW477"
"2023-05-13 20:00",5.92851629711752,"Approved","OW477"
"2023-05-13 21:00",5.96451219512195,"Approved","OW477"
"2023-05-13 22:00",5.91850809312639,"Approved","OW477"
"2023-05-13 23:00",5.81050399113082,"Approved","OW477"
"2023-05-14 00:00",5.80149988913525,"Approved","OW477"
"2023-05-14 01:00",5.84749578713969,"Approved","OW477"
"2023-05-14 02:00",5.85249168514412,"Approved","OW477"
"2023-05-14 03:00",5.85248758314856,"Approved","OW477"
"2023-05-14 04:00",5.85048348115299,"Approved","OW477"
"2023-05-14 05:00",5.84947937915743,"Approved","OW477"
"2023-05-14 06:00",5.95847527716186,"Approved","OW477"
"2023-05-14 07:00",5.9754711751663,"Approved","OW477"
"2023-05-14 08:00",5.88246707317073,"Approved","OW477"
"2023-05-14 09:00",5.87046297117517,"Approved","OW477"
"2023-05-14 10:00",5.8634588691796,"Approved","OW477"
"2023-05-14 11:00",5.78845476718404,"Approved","OW477"
"2023-05-14 12:00",5.75745066518847,"Approved","OW477"
"2023-05-14 13:00",5.7384465631929,"Approved","OW477"
"2023-05-14 14:00",5.74144246119734,"Approved","OW477"
"2023-05-14 15:00",5.79343835920177,"Approved","OW477"
"2023-05-14 16:00",5.87543425720621,"Approved","OW477"
"2023-05-14 17:00",5.91443015521064,"Approved","OW477"
"2023-05-14 18:00",5.93142605321508,"Approved","OW477"
"2023-05-14 19:00",5.94642195121951,"Approved","OW477"
"2023-05-14 20:00",5.85941784922395,"Approved","OW477"
"2023-05-14 21:00",5.85141374722838,"Approved","OW477"
"2023-05-14 22:00",5.84640964523282,"Approved","OW477"
"2023-05-14 23:00",5.84240554323725,"Approved","OW477"
"2023-05-15 00:00",5.83640144124169,"Approved","OW477"
"2023-05-15 01:00",5.78839733924612,"Approved","OW477"
"2023-05-15 02:00",5.73639323725055,"Approved","OW477"
"2023-05-15 03:00",5.83438913525499,"Approved","OW477"
"2023-05-15 04:00",5.89838503325942,"Approved","OW477"
"2023-05-15 05:00",5.91738093126386,"Approved","OW477"
"2023-05-15 06:00",5.81437682926829,"Approved","OW477"
"2023-05-15 07:00",5.80337272727273,"Approved","OW477"
"2023-05-15 08:00",5.79536862527716,"Approved","OW477"
"2023-05-15 09:00",5.7893645232816,"Approved","OW477"
"2023-05-15 10:00",5.72936042128603,"Approved","OW477"
"2023-05-15 11:00",5.69035631929047,"Approved","OW477"
"2023-05-15 12:00",5.6703522172949,"Approved","OW477"
"2023-05-15 13:00",5.72534811529933,"Approved","OW477"
"2023-05-15 14:00",5.84534401330377,"Approved","OW477"
"2023-05-15 15:00",5.8673399113082,"Approved","OW477"
"2023-05-15 16:00",5.88233580931264,"Approved","OW477"
"2023-05-15 17:00",5.79233170731707,"Approved","OW477"
"2023-05-15 18:00",5.78732760532151,"Approved","OW477"
"2023-05-15 19:00",5.78432350332594,"Approved","OW477"
"2023-05-15 20:00",5.78331940133038,"Approved","OW477"
"2023-05-15 21:00",5.78231529933481,"Approved","OW477"
"2023-05-15 22:00",5.78131119733925,"Approved","OW477"
"2023-05-15 23:00",5.89530709534368,"Approved","OW477"
"2023-05-16 00:00",5.91130299334811,"Approved","OW477"
"2023-05-16 01:00",5.81929889135255,"Approved","OW477"
"2023-05-16 02:00",5.80429478935698,"Approved","OW477"
"2023-05-16 03:00",5.79529068736142,"Approved","OW477"
"2023-05-16 04:00",5.78728658536585,"Approved","OW477"
"2023-05-16 05:00",5.78128248337029,"Approved","OW477"
"2023-05-16 06:00",5.77527838137472,"Approved","OW477"
"2023-05-16 07:00",5.77027427937916,"Approved","OW477"
"2023-05-16 08:00",5.77627017738359,"Approved","OW477"
"2023-05-16 09:00",5.77026607538803,"Approved","OW477"
"2023-05-16 10:00",5.76826197339246,"Approved","OW477"
"2023-05-16 11:00",5.7162578713969,"Approved","OW477"
"2023-05-16 12:00",5.74125376940133,"Approved","OW477"
"2023-05-16 13:00",5.74524966740576,"Approved","OW477"
"2023-05-16 14:00",5.7462455654102,"Approved","OW477"
"2023-05-16 15:00",5.74724146341463,"Approved","OW477"
"2023-05-16 16:00",5.74723736141907,"Approved","OW477"
"2023-05-16 17:00",5.8642332594235,"Approved","OW477"
"2023-05-16 18:00",5.88422915742794,"Approved","OW477"
"2023-05-16 19:00",5.79922505543237,"Approved","OW477"
"2023-05-16 20:00",5.78822095343681,"Approved","OW477"
"2023-05-16 21:00",5.78221685144124,"Approved","OW477"
"2023-05-16 22:00",5.78021274944568,"Approved","OW477"
"2023-05-16 23:00",5.69620864745011,"Approved","OW477"
"2023-05-17 00:00",5.67220454545455,"Approved","OW477"
"2023-05-17 01:00",5.71820044345898,"Approved","OW477"
"2023-05-17 02:00",5.73519634146341,"Approved","OW477"
"2023-05-17 03:00",5.83219223946785,"Approved","OW477"
"2023-05-17 04:00",5.85318813747228,"Approved","OW477"
"2023-05-17 05:00",5.86718403547672,"Approved","OW477"
"2023-05-17 06:00",5.77717993348115,"Approved","OW477"
"2023-05-17 07:00",5.70217583148559,"Approved","OW477"
"2023-05-17 08:00",5.66617172949002,"Approved","OW477"
"2023-05-17 09:00",5.64516762749446,"Approved","OW477"
"2023-05-17 10:00",5.70616352549889,"Approved","OW477"
"2023-05-17 11:00",5.71715942350333,"Approved","OW477"
"2023-05-17 12:00",5.82915532150776,"Approved","OW477"
"2023-05-17 13:00",5.8521512195122,"Approved","OW477"
"2023-05-17 14:00",5.86414711751663,"Approved","OW477"
"2023-05-17 15:00",5.76714301552106,"Approved","OW477"
"2023-05-17 16:00",5.8621389135255,"Approved","OW477"
"2023-05-17 17:00",5.87613481152993,"Approved","OW477"
"2023-05-17 18:00",5.78013070953437,"Approved","OW477"
"2023-05-17 19:00",5.7761266075388,"Approved","OW477"
"2023-05-17 20:00",5.70412250554324,"Approved","OW477"
"2023-05-17 21:00",5.67511840354767,"Approved","OW477"
"2023-05-17 22:00",5.65811430155211,"Approved","OW477"
"2023-05-17 23:00",5.64511019955654,"Approved","OW477"
"2023-05-18 00:00",5.70010609756098,"Approved","OW477"
"2023-05-18 01:00",5.71710199556541,"Approved","OW477"
"2023-05-18 02:00",5.82709789356984,"Approved","OW477"
"2023-05-18 03:00",5.84509379157428,"Approved","OW477"
"2023-05-18 04:00",5.81108968957871,"Approved","OW477"
"2023-05-18 05:00",5.76208558758315,"Approved","OW477"
"2023-05-18 06:00",5.75508148558758,"Approved","OW477"
"2023-05-18 07:00",5.75007738359202,"Approved","OW477"
"2023-05-18 08:00",5.68507328159645,"Approved","OW477"
"2023-05-18 09:00",5.65106917960089,"Approved","OW477"
"2023-05-18 10:00",5.63306507760532,"Approved","OW477"
"2023-05-18 11:00",5.73206097560976,"Approved","OW477"
"2023-05-18 12:00",5.81805687361419,"Approved","OW477"
"2023-05-18 13:00",5.84805277161863,"Approved","OW477"
"2023-05-18 14:00",5.75304866962306,"Approved","OW477"
"2023-05-18 15:00",5.74904456762749,"Approved","OW477"
"2023-05-18 16:00",5.75004046563193,"Approved","OW477"
"2023-05-18 17:00",5.75203636363636,"Approved","OW477"
"2023-05-18 18:00",5.7530322616408,"Approved","OW477"
"2023-05-18 19:00",5.85202815964523,"Approved","OW477"
"2023-05-18 20:00",5.87202405764967,"Approved","OW477"
"2023-05-18 21:00",5.8890199556541,"Approved","OW477"
"2023-05-18 22:00",5.80701585365854,"Approved","OW477"
"2023-05-18 23:00",5.78301175166297,"Approved","OW477"
"2023-05-19 00:00",5.71100764966741,"Approved","OW477"
"2023-05-19 01:00",5.68900354767184,"Approved","OW477"
"2023-05-19 02:00",5.66999944567628,"Approved","OW477"
"2023-05-19 03:00",5.71199534368071,"Approved","OW477"
"2023-05-19 04:00",5.73099124168514,"Approved","OW477"
"2023-05-19 05:00",5.84798713968958,"Approved","OW477"
"2023-05-19 06:00",5.86798303769401,"Approved","OW477"
"2023-05-19 07:00",5.78497893569845,"Approved","OW477"
"2023-05-19 08:00",5.77197483370288,"Approved","OW477"
"2023-05-19 09:00",5.76597073170732,"Approved","OW477"
"2023-05-19 10:00",5.71396662971175,"Approved","OW477"
"2023-05-19 11:00",5.67096252771619,"Approved","OW477"
"2023-05-19 12:00",5.74095842572062,"Approved","OW477"
"2023-05-19 13:00",5.80095432372505,"Approved","OW477"
"2023-05-19 14:00",5.84495022172949,"Approved","OW477"
"2023-05-19 15:00",5.78194611973392,"Approved","OW477"
"2023-05-19 16:00",5.77294201773836,"Approved","OW477"
"2023-05-19 17:00",5.77293791574279,"Approved","OW477"
"2023-05-19 18:00",5.77393381374723,"Approved","OW477"
"2023-05-19 19:00",5.77592971175166,"Approved","OW477"
"2023-05-19 20:00",5.8739256097561,"Approved","OW477"
"2023-05-19 21:00",5.90292150776053,"Approved","OW477"
"2023-05-19 22:00",5.92191740576497,"Approved","OW477"
"2023-05-19 23:00",5.8259133037694,"Approved","OW477"
"2023-05-20 00:00",5.81890920177384,"Approved","OW477"
"2023-05-20 01:00",5.81590509977827,"Approved","OW477"
"2023-05-20 02:00",5.7479009977827,"Approved","OW477"
"2023-05-20 03:00",5.71689689578714,"Approved","OW477"
"2023-05-20 04:00",5.69989279379157,"Approved","OW477"
"2023-05-20 05:00",5.72888869179601,"Approved","OW477"
"2023-05-20 06:00",5.85088458980044,"Approved","OW477"
"2023-05-20 07:00",5.87988048780488,"Approved","OW477"
"2023-05-20 08:00",5.90087638580931,"Approved","OW477"
"2023-05-20 09:00",5.82387228381375,"Approved","OW477"
"2023-05-20 10:00",5.81786818181818,"Approved","OW477"
"2023-05-20 11:00",5.81786407982262,"Approved","OW477"
"2023-05-20 12:00",5.81785997782705,"Approved","OW477"
"2023-05-20 13:00",5.92785587583149,"Approved","OW477"
"2023-05-20 14:00",5.86985177383592,"Approved","OW477"
"2023-05-20 15:00",5.80384767184035,"Approved","OW477"
"2023-05-20 16:00",5.82584356984479,"Approved","OW477"
"2023-05-20 17:00",5.83383946784922,"Approved","OW477"
"2023-05-20 18:00",5.83883536585366,"Approved","OW477"
"2023-05-20 19:00",5.84283126385809,"Approved","OW477"
"2023-05-20 20:00",5.93782716186253,"Approved","OW477"
"2023-05-20 21:00",5.96082305986696,"Approved","OW477"
"2023-05-20 22:00",5.9788189578714,"Approved","OW477"
"2023-05-20 23:00",5.90581485587583,"Approved","OW477"
"2023-05-21 00:00",5.89581075388027,"Approved","OW477"
"2023-05-21 01:00",5.8928066518847,"Approved","OW477"
"2023-05-21 02:00",5.88980254988914,"Approved","OW477"
"2023-05-21 03:00",5.88979844789357,"Approved","OW477"
"2023-05-21 04:00",5.808794345898,"Approved","OW477"
"2023-05-21 05:00",5.78679024390244,"Approved","OW477"
"2023-05-21 06:00",5.86678614190687,"Approved","OW477"
"2023-05-21 07:00",5.94478203991131,"Approved","OW477"
"2023-05-21 08:00",5.98077793791574,"Approved","OW477"
"2023-05-21 09:00",5.88877383592018,"Approved","OW477"
"2023-05-21 10:00",5.88676973392461,"Approved","OW477"
"2023-05-21 11:00",5.88776563192905,"Approved","OW477"
"2023-05-21 12:00",5.85876152993348,"Approved","OW477"
"2023-05-21 13:00",5.90375742793792,"Approved","OW477"
"2023-05-21 14:00",5.90475332594235,"Approved","OW477"
"2023-05-21 15:00",5.90674922394679,"Approved","OW477"
"2023-05-21 16:00",5.81074512195122,"Approved","OW477"
"2023-05-21 17:00",5.79674101995565,"Approved","OW477"
"2023-05-21 18:00",5.78573691796009,"Approved","OW477"
"2023-05-21 19:00",5.77773281596452,"Approved","OW477"
"2023-05-21 20:00",5.77172871396896,"Approved","OW477"
"2023-05-21 21:00",5.76572461197339,"Approved","OW477"
"2023-05-21 22:00",5.85872050997783,"Approved","OW477"
"2023-05-21 23:00",5.87771640798226,"Approved","OW477"
"2023-05-22 00:00",5.8907123059867,"Approved","OW477"
"2023-05-22 01:00",5.78670820399113,"Approved","OW477"
"2023-05-22 02:00",5.77570410199557,"Approved","OW477"
"2023-05-22 03:00",5.7677,"Approved","OW477"
"2023-05-22 04:00",5.76169589800443,"Approved","OW477"
"2023-05-22 05:00",5.75569179600887,"Approved","OW477"
"2023-05-22 06:00",5.7496876940133,"Approved","OW477"
"2023-05-22 07:00",5.74468359201774,"Approved","OW477"
"2023-05-22 08:00",5.80367949002217,"Approved","OW477"
"2023-05-22 09:00",5.84067538802661,"Approved","OW477"
"2023-05-22 10:00",5.85367128603104,"Approved","OW477"
"2023-05-22 11:00",5.86266718403548,"Approved","OW477"
"2023-05-22 12:00",5.77566308203991,"Approved","OW477"
"2023-05-22 13:00",5.76465898004435,"Approved","OW477"
"2023-05-22 14:00",5.75665487804878,"Approved","OW477"
"2023-05-22 15:00",5.75265077605321,"Approved","OW477"
"2023-05-22 16:00",5.74764667405765,"Approved","OW477"
"2023-05-22 17:00",5.74564257206208,"Approved","OW477"
"2023-05-22 18:00",5.84563847006652,"Approved","OW477"
"2023-05-22 19:00",5.86363436807095,"Approved","OW477"
"2023-05-22 20:00",5.87963026607539,"Approved","OW477"
"2023-05-22 21:00",5.77962616407982,"Approved","OW477"
"2023-05-22 22:00",5.77262206208426,"Approved","OW477"
"2023-05-22 23:00",5.76861796008869,"Approved","OW477"
"2023-05-23 00:00",5.76461385809313,"Approved","OW477"
"2023-05-23 01:00",5.76260975609756,"Approved","OW477"
"2023-05-23 02:00",5.761605654102,"Approved","OW477"
"2023-05-23 03:00",5.76060155210643,"Approved","OW477"
"2023-05-23 04:00",5.84859745011086,"Approved","OW477"
"2023-05-23 05:00",5.8685933481153,"Approved","OW477"
"2023-05-23 06:00",5.88258924611973,"Approved","OW477"
"2023-05-23 07:00",5.79858514412417,"Approved","OW477"
"2023-05-23 08:00",5.7925810421286,"Approved","OW477"
"2023-05-23 09:00",5.78857694013304,"Approved","OW477"
"2023-05-23 10:00",5.78557283813747,"Approved","OW477"
"2023-05-23 11:00",5.78456873614191,"Approved","OW477"
"2023-05-23 12:00",5.78356463414634,"Approved","OW477"
"2023-05-23 13:00",5.88456053215078,"Approved","OW477"
"2023-05-23 14:00",5.90655643015521,"Approved","OW477"
"2023-05-23 15:00",5.92355232815965,"Approved","OW477"
"2023-05-23 16:00",5.82454822616408,"Approved","OW477"
"2023-05-23 17:00",5.82054412416851,"Approved","OW477"
"2023-05-23 18:00",5.81854002217295,"Approved","OW477"
"2023-05-23 19:00",5.81653592017738,"Approved","OW477"